sat.trackr.live / text

‹ back to catalog

STARLINK-34678

NORAD 65443 · 2025-194K

PAYLOAD ACTIVE UNKNOWN

§ Identity

Operator
Country
US
Launch date
2025-09-03
Launch site
AFWTR
Launch vehicle
Mass (kg)
RCS (m²)

Purposes: comms

External: N2YO · Heavens-Above · Gunter

§ Orbital elements

Epoch: 2026-09-20T13:07:37.890912Z

Period
93.91 min
Inclination
97.2829°
Eccentricity
0.0002293
Mean motion
15.33453515 rev/d
Perigee alt
463.9 km
Apogee alt
467.1 km
Semi-major
6,843.7 km
B*
3.3746e-4
RAAN
113.1686°
Arg perigee
100.5043°
Mean anomaly
259.6459°
Rev number
5,907

§ Raw data

STARLINK-346781 65443U 25194K   26263.54696633  .00010838  00000+0  33746-3 0  99992 65443  97.2829 113.1686 0002293 100.5043 259.6459 15.33453515 59072

JSON: /api/v1/satellites/65443 · /tle

For live sub-satellite position, see the globe view (requires WebGL).

§ Visibility from observer

Set your observer location to see the next 7 days of passes ≥ 10°. The values pass through the URL so the page stays shareable.

No JS? Fill the form by hand. The geolocation button needs JavaScript.